Afton Municipal Airport, WY

1:05 AM MST on December 16, 2019 (GMT -0700)
Afton Municipal

Weather History for KAFO - October, 2019

Change the Weather History Date:

Sunday, October 27, 2019

  Actual Average Record
Temperature  
Mean Temperature 19 °F -  
Max Temperature 30 °F 53 °F 66 °F (2016)
Min Temperature 6 °F 21 °F 17 °F (2017)
Degree Days  
Heating Degree Days 46    
Moisture  
Dew Point 16 °F    
Average Humidity 77    
Maximum Humidity 100    
Minimum Humidity 47    
Precipitation  
Precipitation 0.00 in - - ()
Sea Level Pressure  
Sea Level Pressure 30.01 in    
Wind  
Wind Speed 4 mph ()    
Max Wind Speed 12 mph    
Max Gust Speed -    
Visibility 6.9 miles    
Events Snow    
Averages and records for this station are not official NWS values.
T = Trace of Precipitation, MM = Missing Value Source: Averaged Metar Reports

Daily Weather History Graph

Daily Weather History Graph

Search for Another Location

Airport or City:

Astronomy

Oct. 27, 2019 Rise Set
Actual Time 7:51 AM MDT 6:23 PM MDT
Civil Twilight 7:22 AM MDT 6:52 PM MDT
Nautical Twilight 6:49 AM MDT 7:25 PM MDT
Astronomical Twilight 6:16 AM MDT 7:58 PM MDT
Moon 7:01 AM MDT (10/27) 6:36 PM MDT (10/27)
Length of Visible Light 11h 30m
Length of Day
10h 32m
Waning Crescent, 0% of the Moon is Illuminated
Oct 27
Waning Crescent
Oct 27
New
Nov 4
First Quarter
Nov 12
Full
Nov 19
Last Quarter

Hourly Weather History & Observations

Time (MDT) Temp. Windchill Dew Point Humidity Pressure Visibility Wind Dir Wind Speed Gust Speed Precip Events Conditions
12:15 AM 28.4 °F - 24.8 °F 86% 29.90 in 10.0 mi Calm Calm - N/A   Overcast
12:55 AM 28.4 °F 23.3 °F 23.0 °F 80% 29.90 in 10.0 mi North 4.6 mph - N/A   Overcast
1:15 AM 28.4 °F 24.6 °F 23.0 °F 80% 29.90 in 10.0 mi North 3.5 mph - N/A   Overcast
1:35 AM 28.4 °F 23.3 °F 21.2 °F 74% 29.90 in 10.0 mi North 4.6 mph - N/A   Overcast
1:55 AM 28.4 °F 23.3 °F 21.2 °F 74% 29.91 in 10.0 mi NNW 4.6 mph - N/A   Overcast
2:15 AM 26.6 °F 20.0 °F 21.2 °F 80% 29.91 in 10.0 mi NNW 5.8 mph - N/A   Overcast
2:35 AM 26.6 °F 19.1 °F 21.2 °F 80% 29.92 in 2.5 mi NW 6.9 mph - N/A Snow Light Snow
2:55 AM 24.8 °F 17.9 °F 21.2 °F 86% 29.92 in 3.0 mi NW 5.8 mph - N/A Snow Light Snow
3:15 AM 23.0 °F 13.9 °F 21.2 °F 93% 29.93 in 1.2 mi NW 8.1 mph - N/A Snow Snow
3:55 AM 23.0 °F 14.7 °F 21.2 °F 93% 29.93 in 0.8 mi NNW 6.9 mph - N/A Snow Snow
4:35 AM 23.0 °F - 21.2 °F 93% 29.93 in 1.5 mi North - - N/A Snow Light Snow
4:55 AM 23.0 °F 18.4 °F 21.2 °F 93% 29.93 in 1.2 mi NW 3.5 mph - N/A Snow Snow
5:15 AM 23.0 °F 18.4 °F 21.2 °F 93% 29.94 in 1.2 mi NNW 3.5 mph - N/A Snow Light Snow
5:35 AM 23.0 °F 17.0 °F 21.2 °F 93% 29.94 in 1.5 mi NW 4.6 mph - N/A Snow Light Snow
5:55 AM 21.2 °F 13.6 °F 21.2 °F 100% 29.95 in 1.5 mi NW 5.8 mph - N/A Snow Light Snow
6:15 AM 21.2 °F 13.6 °F 21.2 °F 100% 29.96 in 2.0 mi NNW 5.8 mph - N/A Snow Light Snow
6:35 AM 21.2 °F 14.9 °F 19.4 °F 93% 29.96 in 2.0 mi NNW 4.6 mph - N/A Snow Light Snow
6:55 AM 21.2 °F 14.9 °F 19.4 °F 93% 29.97 in 2.0 mi North 4.6 mph - N/A Snow Light Snow
7:15 AM 21.2 °F 12.6 °F 19.4 °F 93% 29.97 in 2.0 mi NNW 6.9 mph - N/A Snow Light Snow
7:35 AM 21.2 °F 12.6 °F 19.4 °F 93% 29.98 in 2.5 mi NNW 6.9 mph - N/A Snow Light Snow
7:55 AM 21.2 °F 16.4 °F 19.4 °F 93% 29.99 in 2.0 mi NNW 3.5 mph - N/A Snow Light Snow
8:15 AM 19.4 °F - 19.4 °F 100% 30.00 in 2.5 mi Calm Calm - N/A Snow Light Snow
8:35 AM 21.2 °F 14.9 °F 19.4 °F 93% 30.01 in 7.0 mi NNE 4.6 mph - N/A Snow Light Snow
8:55 AM 21.2 °F 14.9 °F 19.4 °F 93% 30.02 in 2.5 mi NNW 4.6 mph - N/A Snow Light Snow
9:15 AM 21.2 °F 16.4 °F 17.6 °F 86% 30.02 in 5.0 mi North 3.5 mph - N/A Snow Light Snow
9:35 AM 21.2 °F - 19.4 °F 93% 30.02 in 2.5 mi Calm Calm - N/A Snow Light Snow
9:55 AM 21.2 °F 16.4 °F 19.4 °F 93% 30.03 in 1.8 mi North 3.5 mph - N/A Snow Light Snow
10:15 AM 21.2 °F 14.9 °F 17.6 °F 86% 30.03 in 3.0 mi North 4.6 mph - N/A Snow Light Snow
10:35 AM 23.0 °F 15.8 °F 17.6 °F 80% 30.04 in 4.0 mi NNW 5.8 mph - N/A Snow Light Snow
10:55 AM 23.0 °F 12.4 °F 17.6 °F 80% 30.04 in 5.0 mi North 10.4 mph - N/A Snow Light Snow
11:15 AM 23.0 °F 11.7 °F 15.8 °F 74% 30.04 in 4.0 mi North 11.5 mph - N/A Snow Light Snow
11:35 AM 23.0 °F 12.4 °F 15.8 °F 74% 30.05 in 5.0 mi North 10.4 mph - N/A   Haze
11:55 AM 23.0 °F 12.4 °F 15.8 °F 74% 30.05 in 7.0 mi North 10.4 mph - N/A   Overcast
12:15 PM 23.0 °F 13.1 °F 17.6 °F 80% 30.05 in 5.0 mi North 9.2 mph - N/A   Haze
12:35 PM 23.0 °F 11.7 °F 15.8 °F 74% 30.05 in 10.0 mi North 11.5 mph - N/A   Overcast
12:55 PM 23.0 °F 11.7 °F 15.8 °F 74% 30.05 in 7.0 mi North 11.5 mph - N/A   Overcast
1:15 PM 23.0 °F 11.7 °F 15.8 °F 74% 30.05 in 3.0 mi North 11.5 mph - N/A   Haze
1:35 PM 23.0 °F 14.7 °F 15.8 °F 74% 30.04 in 5.0 mi NNW 6.9 mph - N/A   Haze
1:55 PM 24.8 °F 20.5 °F 14.0 °F 64% 30.03 in 10.0 mi North 3.5 mph - N/A   Overcast
2:15 PM 26.6 °F - 14.0 °F 59% 30.03 in 10.0 mi North - - N/A   Mostly Cloudy
2:35 PM 28.4 °F 24.6 °F 14.0 °F 55% 30.03 in 10.0 mi West 3.5 mph - N/A   Mostly Cloudy
2:55 PM 28.4 °F - 14.0 °F 55% 30.02 in 10.0 mi Calm Calm - N/A   Scattered Clouds
3:15 PM 30.2 °F - 14.0 °F 51% 30.02 in 10.0 mi Calm Calm - N/A   Clear
3:35 PM 28.4 °F - 14.0 °F 55% 30.02 in 10.0 mi Calm Calm - N/A   Scattered Clouds
3:55 PM 30.2 °F - 12.2 °F 47% 30.02 in 10.0 mi Calm Calm - N/A   Scattered Clouds
4:15 PM 26.6 °F 22.6 °F 12.2 °F 55% 30.03 in 10.0 mi WNW 3.5 mph - N/A   Scattered Clouds
4:35 PM 26.6 °F 19.1 °F 17.6 °F 69% 30.03 in 10.0 mi West 6.9 mph - N/A   Mostly Cloudy
4:55 PM 28.4 °F 22.2 °F 17.6 °F 64% 30.02 in 10.0 mi WSW 5.8 mph - N/A   Overcast
5:15 PM 24.8 °F 20.5 °F 17.6 °F 74% 30.02 in 10.0 mi South 3.5 mph - N/A   Scattered Clouds
5:35 PM 24.8 °F 20.5 °F 17.6 °F 74% 30.02 in 10.0 mi SSE 3.5 mph - N/A   Scattered Clouds
5:55 PM 23.0 °F 18.4 °F 15.8 °F 74% 30.02 in 10.0 mi SSE 3.5 mph - N/A   Mostly Cloudy
6:15 PM 21.2 °F 16.4 °F 15.8 °F 80% 30.03 in 10.0 mi South 3.5 mph - N/A   Mostly Cloudy
6:35 PM 23.0 °F - 17.6 °F 80% 30.03 in 10.0 mi Calm Calm - N/A   Mostly Cloudy
6:55 PM 23.0 °F - 17.6 °F 80% 30.04 in 10.0 mi North - - N/A   Overcast
7:15 PM 23.0 °F - 17.6 °F 80% 30.05 in 10.0 mi Calm Calm - N/A   Overcast
7:35 PM 21.2 °F 13.6 °F 10.4 °F 63% 30.06 in 10.0 mi NNW 5.8 mph - N/A   Overcast
7:55 PM 19.4 °F 12.8 °F 8.6 °F 63% 30.06 in 10.0 mi North 4.6 mph - N/A   Scattered Clouds
8:15 PM 19.4 °F - 5.0 °F 54% 30.07 in 10.0 mi Calm Calm - N/A   Clear
8:35 PM 15.8 °F - 5.0 °F 62% 30.08 in 10.0 mi Calm Calm - N/A   Clear
8:55 PM 17.6 °F - 3.2 °F 53% 30.08 in 10.0 mi Calm Calm - N/A   Clear
9:15 PM 17.6 °F - 3.2 °F 53% 30.08 in 10.0 mi Calm Calm - N/A   Clear
9:35 PM 15.8 °F 10.2 °F 5.0 °F 62% 30.08 in 10.0 mi North 3.5 mph - N/A   Clear
9:55 PM 12.2 °F - 3.2 °F 67% 30.09 in 10.0 mi North - - N/A   Clear
10:15 PM 10.4 °F - 3.2 °F 73% 30.09 in 10.0 mi North - - N/A   Clear
10:35 PM 8.6 °F -1.3 °F 3.2 °F 79% 30.09 in 10.0 mi South 5.8 mph - N/A   Clear
10:55 PM 8.6 °F -2.6 °F 3.2 °F 79% 30.09 in 10.0 mi South 6.9 mph - N/A   Clear
11:15 PM 8.6 °F -1.3 °F 3.2 °F 79% 30.11 in 10.0 mi South 5.8 mph - N/A   Clear
11:55 PM 6.8 °F -2.0 °F 3.2 °F 85% 30.11 in 10.0 mi SSE 4.6 mph - N/A   Clear